owner,sensor,date,latitude,longitude,vertical_datum,wind_speed,wind_to_direction,wind_speed_of_gust,qcFlag 
TCOON,ioos:station:TCOON:006:1,2014-08-01T00:00:00Z,27.8217,-97.2040,0.0,7.3,140.0,9.4,'11111222,11111222,11111222' 
TCOON,ioos:station:TCOON:006:1,2014-08-01T00:06:00Z,27.8217,-97.2040,0.0,7.2,137.0,9.7,'11111222,11111222,11111222' 
TCOON,ioos:station:TCOON:006:1,2014-08-01T00:12:00Z,27.8217,-97.2040,0.0,7.2,137.0,9.7,'1111122,1111122,1111122' 
TCOON,ioos:station:TCOON:006:1,2014-08-01T00:18:00Z,27.8217,-97.2040,0.0,8.0,135.0,10.6,'11111222,11111222,11111222' 
TCOON,ioos:station:TCOON:006:1,2014-08-01T00:24:00Z,27.8217,-97.2040,0.0,6.7,137.0,10.1,'11111222,11111222,11111222' 
TCOON,ioos:station:TCOON:006:1,2014-08-01T00:30:00Z,27.8217,-97.2040,0.0,6.8,138.0,9.5,'11111222,11111222,11111222' 
TCOON,ioos:station:TCOON:006:1,2014-08-01T00:36:00Z,27.8217,-97.2040,0.0,7.5,139.0,10.0,'11111222,11111222,11111222' 
TCOON,ioos:station:TCOON:006:1,2014-08-01T00:42:00Z,27.8217,-97.2040,0.0,7.0,142.0,9.5,'11111222,11111222,11111222' 
TCOON,ioos:station:TCOON:006:1,2014-08-01T00:48:00Z,27.8217,-97.2040,0.0,7.1,144.0,9.6,'11111222,11111222,11111222' 
TCOON,ioos:station:TCOON:006:1,2014-08-01T00:54:00Z,27.8217,-97.2040,0.0,6.3,140.0,9.7,'11111222,11111222,11111222' 
TCOON,ioos:station:TCOON:006:1,2014-08-01T01:00:00Z,27.8217,-97.2040,0.0,6.8,144.0,9.0,'11111222,11111222,11111222' 
TCOON,ioos:station:TCOON:006:1,2014-08-01T01:06:00Z,27.8217,-97.2040,0.0,6.5,146.0,9.4,'11111222,11111222,11111222' 
TCOON,ioos:station:TCOON:006:1,2014-08-01T01:12:00Z,27.8217,-97.2040,0.0,6.5,146.0,9.4,'1111122,1111122,1111122' 
TCOON,ioos:station:TCOON:006:1,2014-08-01T01:18:00Z,27.8217,-97.2040,0.0,6.6,144.0,9.7,'11111222,11111222,11111222' 
TCOON,ioos:station:TCOON:006:1,2014-08-01T01:24:00Z,27.8217,-97.2040,0.0,6.7,145.0,9.9,'11111222,11111222,11111222' 
TCOON,ioos:station:TCOON:006:1,2014-08-01T01:30:00Z,27.8217,-97.2040,0.0,7.7,152.0,9.9,'11111222,11111222,11111222' 
TCOON,ioos:station:TCOON:006:1,2014-08-01T01:36:00Z,27.8217,-97.2040,0.0,7.7,149.0,9.8,'11111222,11111222,11111222' 
TCOON,ioos:station:TCOON:006:1,2014-08-01T01:42:00Z,27.8217,-97.2040,0.0,6.8,147.0,10.2,'11111222,11111222,11111222' 
TCOON,ioos:station:TCOON:006:1,2014-08-01T01:48:00Z,27.8217,-97.2040,0.0,7.9,153.0,10.2,'11111222,11111222,11111222' 
TCOON,ioos:station:TCOON:006:1,2014-08-01T01:54:00Z,27.8217,-97.2040,0.0,7.5,150.0,10.2,'11111222,11111222,11111222' 
TCOON,ioos:station:TCOON:006:1,2014-08-01T02:00:00Z,27.8217,-97.2040,0.0,6.8,151.0,9.4,'11111222,11111222,11111222' 
TCOON,ioos:station:TCOON:006:1,2014-08-01T02:06:00Z,27.8217,-97.2040,0.0,7.7,151.0,10.2,'11111222,11111222,11111222' 
TCOON,ioos:station:TCOON:006:1,2014-08-01T02:12:00Z,27.8217,-97.2040,0.0,7.7,151.0,10.2,'1111122,1111122,1111122' 
TCOON,ioos:station:TCOON:006:1,2014-08-01T02:18:00Z,27.8217,-97.2040,0.0,7.8,155.0,10.6,'11111222,11111222,11111222' 
TCOON,ioos:station:TCOON:006:1,2014-08-01T02:24:00Z,27.8217,-97.2040,0.0,7.3,154.0,9.7,'11111222,11111222,11111222' 
TCOON,ioos:station:TCOON:006:1,2014-08-01T02:30:00Z,27.8217,-97.2040,0.0,7.7,155.0,10.2,'11111222,11111222,11111222' 
TCOON,ioos:station:TCOON:006:1,2014-08-01T02:36:00Z,27.8217,-97.2040,0.0,8.7,153.0,11.4,'11111222,11111222,11111222' 
TCOON,ioos:station:TCOON:006:1,2014-08-01T02:42:00Z,27.8217,-97.2040,0.0,8.7,152.0,11.5,'11111222,11111222,11111222' 
TCOON,ioos:station:TCOON:006:1,2014-08-01T02:48:00Z,27.8217,-97.2040,0.0,8.6,151.0,10.1,'11111222,11111222,11111222' 
TCOON,ioos:station:TCOON:006:1,2014-08-01T02:54:00Z,27.8217,-97.2040,0.0,8.2,157.0,10.8,'11111222,11111222,11111222' 
TCOON,ioos:station:TCOON:006:1,2014-08-01T03:00:00Z,27.8217,-97.2040,0.0,8.5,154.0,10.8,'11111222,11111222,11111222' 
TCOON,ioos:station:TCOON:006:1,2014-08-01T03:06:00Z,27.8217,-97.2040,0.0,8.3,158.0,11.4,'11111222,11111222,11111222' 
TCOON,ioos:station:TCOON:006:1,2014-08-01T03:12:00Z,27.8217,-97.2040,0.0,8.3,158.0,11.4,'1111122,1111122,1111122' 
TCOON,ioos:station:TCOON:006:1,2014-08-01T03:18:00Z,27.8217,-97.2040,0.0,7.5,158.0,9.4,'11111222,11111222,11111222' 
TCOON,ioos:station:TCOON:006:1,2014-08-01T03:24:00Z,27.8217,-97.2040,0.0,8.1,155.0,9.9,'11111222,11111222,11111222' 
TCOON,ioos:station:TCOON:006:1,2014-08-01T03:30:00Z,27.8217,-97.2040,0.0,8.7,160.0,10.6,'11111222,11111222,11111222' 
TCOON,ioos:station:TCOON:006:1,2014-08-01T03:36:00Z,27.8217,-97.2040,0.0,8.4,158.0,10.7,'11111222,11111222,11111222' 
TCOON,ioos:station:TCOON:006:1,2014-08-01T03:42:00Z,27.8217,-97.2040,0.0,8.7,159.0,10.2,'11111222,11111222,11111222' 
TCOON,ioos:station:TCOON:006:1,2014-08-01T03:48:00Z,27.8217,-97.2040,0.0,8.5,158.0,10.3,'11111222,11111222,11111222' 
TCOON,ioos:station:TCOON:006:1,2014-08-01T03:54:00Z,27.8217,-97.2040,0.0,8.0,156.0,9.8,'11111222,11111222,11111222' 
TCOON,ioos:station:TCOON:006:1,2014-08-01T04:00:00Z,27.8217,-97.2040,0.0,8.0,156.0,10.7,'11111222,11111222,11111222' 
TCOON,ioos:station:TCOON:006:1,2014-08-01T04:06:00Z,27.8217,-97.2040,0.0,7.9,157.0,9.5,'11111222,11111222,11111222' 
TCOON,ioos:station:TCOON:006:1,2014-08-01T04:12:00Z,27.8217,-97.2040,0.0,7.9,157.0,9.5,'1111122,1111122,1111122' 
TCOON,ioos:station:TCOON:006:1,2014-08-01T04:18:00Z,27.8217,-97.2040,0.0,7.6,160.0,10.1,'11111222,11111222,11111222' 
TCOON,ioos:station:TCOON:006:1,2014-08-01T04:24:00Z,27.8217,-97.2040,0.0,8.4,158.0,9.6,'11111222,11111222,11111222' 
TCOON,ioos:station:TCOON:006:1,2014-08-01T04:30:00Z,27.8217,-97.2040,0.0,7.7,161.0,9.1,'11111222,11111222,11111222' 
TCOON,ioos:station:TCOON:006:1,2014-08-01T04:36:00Z,27.8217,-97.2040,0.0,8.1,159.0,9.3,'11111222,11111222,11111222' 
TCOON,ioos:station:TCOON:006:1,2014-08-01T04:42:00Z,27.8217,-97.2040,0.0,7.4,158.0,10.2,'11111222,11111222,11111222' 
TCOON,ioos:station:TCOON:006:1,2014-08-01T04:48:00Z,27.8217,-97.2040,0.0,8.1,163.0,9.9,'11111222,11111222,11111222' 
TCOON,ioos:station:TCOON:006:1,2014-08-01T04:54:00Z,27.8217,-97.2040,0.0,7.6,164.0,9.5,'11111222,11111222,11111222' 
TCOON,ioos:station:TCOON:006:1,2014-08-01T05:00:00Z,27.8217,-97.2040,0.0,8.5,165.0,9.8,'11111222,11111222,11111222' 
TCOON,ioos:station:TCOON:006:1,2014-08-01T05:06:00Z,27.8217,-97.2040,0.0,9.1,164.0,9.9,'11111222,11111222,11111222' 
TCOON,ioos:station:TCOON:006:1,2014-08-01T05:12:00Z,27.8217,-97.2040,0.0,9.1,164.0,9.9,'1111122,1111122,1111122' 
TCOON,ioos:station:TCOON:006:1,2014-08-01T05:18:00Z,27.8217,-97.2040,0.0,7.8,161.0,9.6,'11111222,11111222,11111222' 
TCOON,ioos:station:TCOON:006:1,2014-08-01T05:24:00Z,27.8217,-97.2040,0.0,8.1,161.0,9.6,'11111222,11111222,11111222' 
TCOON,ioos:station:TCOON:006:1,2014-08-01T05:30:00Z,27.8217,-97.2040,0.0,9.0,160.0,10.8,'11111222,11111222,11111222' 
TCOON,ioos:station:TCOON:006:1,2014-08-01T05:36:00Z,27.8217,-97.2040,0.0,8.3,164.0,9.9,'11111222,11111222,11111222' 
TCOON,ioos:station:TCOON:006:1,2014-08-01T05:42:00Z,27.8217,-97.2040,0.0,8.0,167.0,10.2,'11111222,11111222,11111222' 
TCOON,ioos:station:TCOON:006:1,2014-08-01T05:48:00Z,27.8217,-97.2040,0.0,8.0,168.0,10.1,'11111222,11111222,11111222' 
TCOON,ioos:station:TCOON:006:1,2014-08-01T05:54:00Z,27.8217,-97.2040,0.0,9.1,172.0,10.7,'11111222,11111222,11111222' 
TCOON,ioos:station:TCOON:006:1,2014-08-01T06:00:00Z,27.8217,-97.2040,0.0,8.2,174.0,11.0,'11111222,11111222,11111222' 
TCOON,ioos:station:TCOON:006:1,2014-08-01T06:06:00Z,27.8217,-97.2040,0.0,9.6,170.0,11.5,'11111222,11111222,11111222' 
TCOON,ioos:station:TCOON:006:1,2014-08-01T06:12:00Z,27.8217,-97.2040,0.0,8.7,169.0,11.5,'11111222,11111222,11111222' 
TCOON,ioos:station:TCOON:006:1,2014-08-01T06:18:00Z,27.8217,-97.2040,0.0,8.8,169.0,11.0,'11111222,11111222,11111222' 
TCOON,ioos:station:TCOON:006:1,2014-08-01T06:24:00Z,27.8217,-97.2040,0.0,7.8,172.0,10.8,'11111222,11111222,11111222' 
TCOON,ioos:station:TCOON:006:1,2014-08-01T06:30:00Z,27.8217,-97.2040,0.0,9.0,173.0,11.0,'11111222,11111222,11111222' 
TCOON,ioos:station:TCOON:006:1,2014-08-01T06:36:00Z,27.8217,-97.2040,0.0,8.2,174.0,11.1,'11111222,11111222,11111222' 
TCOON,ioos:station:TCOON:006:1,2014-08-01T06:42:00Z,27.8217,-97.2040,0.0,8.2,174.0,11.1,'1111122,1111122,1111122' 
TCOON,ioos:station:TCOON:006:1,2014-08-01T06:48:00Z,27.8217,-97.2040,0.0,6.6,172.0,9.9,'11111222,11111222,11111222' 
TCOON,ioos:station:TCOON:006:1,2014-08-01T06:54:00Z,27.8217,-97.2040,0.0,8.7,175.0,10.3,'11111222,11111222,11111222' 
TCOON,ioos:station:TCOON:006:1,2014-08-01T07:00:00Z,27.8217,-97.2040,0.0,8.4,174.0,10.3,'11111222,11111222,11111222' 
TCOON,ioos:station:TCOON:006:1,2014-08-01T07:06:00Z,27.8217,-97.2040,0.0,8.4,174.0,10.1,'1111122,1111122,1111122' 
TCOON,ioos:station:TCOON:006:1,2014-08-01T07:12:00Z,27.8217,-97.2040,0.0,8.2,174.0,10.8,'11111222,11111222,11111222' 
TCOON,ioos:station:TCOON:006:1,2014-08-01T07:18:00Z,27.8217,-97.2040,0.0,8.8,175.0,10.9,'11111222,11111222,11111222' 
TCOON,ioos:station:TCOON:006:1,2014-08-01T07:24:00Z,27.8217,-97.2040,0.0,8.4,173.0,10.2,'11111222,11111222,11111222' 
TCOON,ioos:station:TCOON:006:1,2014-08-01T07:30:00Z,27.8217,-97.2040,0.0,8.5,174.0,10.3,'11111222,11111222,11111222' 
TCOON,ioos:station:TCOON:006:1,2014-08-01T07:36:00Z,27.8217,-97.2040,0.0,8.7,177.0,10.9,'11111222,11111222,11111222' 
TCOON,ioos:station:TCOON:006:1,2014-08-01T07:42:00Z,27.8217,-97.2040,0.0,7.7,179.0,10.8,'11111222,11111222,11111222' 
TCOON,ioos:station:TCOON:006:1,2014-08-01T07:48:00Z,27.8217,-97.2040,0.0,9.2,178.0,11.5,'11111222,11111222,11111222' 
TCOON,ioos:station:TCOON:006:1,2014-08-01T07:54:00Z,27.8217,-97.2040,0.0,9.0,183.0,11.2,'11111222,11111222,11111222' 
TCOON,ioos:station:TCOON:006:1,2014-08-01T08:00:00Z,27.8217,-97.2040,0.0,10.0,177.0,11.6,'11111222,11111222,11111222' 
TCOON,ioos:station:TCOON:006:1,2014-08-01T08:06:00Z,27.8217,-97.2040,0.0,8.6,178.0,11.0,'11111222,11111222,11111222' 
TCOON,ioos:station:TCOON:006:1,2014-08-01T08:12:00Z,27.8217,-97.2040,0.0,8.6,178.0,11.0,'1111122,1111122,1111122' 
TCOON,ioos:station:TCOON:006:1,2014-08-01T08:18:00Z,27.8217,-97.2040,0.0,9.5,180.0,11.0,'11111222,11111222,11111222' 
TCOON,ioos:station:TCOON:006:1,2014-08-01T08:24:00Z,27.8217,-97.2040,0.0,9.9,179.0,11.5,'11111222,11111222,11111222' 
TCOON,ioos:station:TCOON:006:1,2014-08-01T08:30:00Z,27.8217,-97.2040,0.0,8.9,179.0,10.2,'11111222,11111222,11111222' 
TCOON,ioos:station:TCOON:006:1,2014-08-01T08:36:00Z,27.8217,-97.2040,0.0,7.6,178.0,10.4,'11111222,11111222,11111222' 
TCOON,ioos:station:TCOON:006:1,2014-08-01T08:42:00Z,27.8217,-97.2040,0.0,7.8,177.0,9.5,'11111222,11111222,11111222' 
TCOON,ioos:station:TCOON:006:1,2014-08-01T08:48:00Z,27.8217,-97.2040,0.0,8.6,177.0,10.1,'11111222,11111222,11111222' 
TCOON,ioos:station:TCOON:006:1,2014-08-01T08:54:00Z,27.8217,-97.2040,0.0,8.9,178.0,11.1,'11111222,11111222,11111222' 
TCOON,ioos:station:TCOON:006:1,2014-08-01T09:00:00Z,27.8217,-97.2040,0.0,7.4,179.0,9.6,'11111222,11111222,11111222' 
TCOON,ioos:station:TCOON:006:1,2014-08-01T09:06:00Z,27.8217,-97.2040,0.0,8.2,177.0,9.8,'11111222,11111222,11111222' 
TCOON,ioos:station:TCOON:006:1,2014-08-01T09:12:00Z,27.8217,-97.2040,0.0,8.2,177.0,9.8,'1111122,1111122,1111122' 
TCOON,ioos:station:TCOON:006:1,2014-08-01T09:18:00Z,27.8217,-97.2040,0.0,8.0,180.0,10.0,'11111222,11111222,11111222' 
TCOON,ioos:station:TCOON:006:1,2014-08-01T09:24:00Z,27.8217,-97.2040,0.0,8.0,176.0,9.0,'11111222,11111222,11111222' 
TCOON,ioos:station:TCOON:006:1,2014-08-01T09:30:00Z,27.8217,-97.2040,0.0,7.8,180.0,9.4,'11111222,11111222,11111222' 
TCOON,ioos:station:TCOON:006:1,2014-08-01T09:36:00Z,27.8217,-97.2040,0.0,7.9,176.0,11.1,'11111222,11111222,11111222' 
TCOON,ioos:station:TCOON:006:1,2014-08-01T09:42:00Z,27.8217,-97.2040,0.0,8.1,183.0,11.0,'11111222,11111222,11111222' 
TCOON,ioos:station:TCOON:006:1,2014-08-01T09:48:00Z,27.8217,-97.2040,0.0,7.9,177.0,9.9,'11111222,11111222,11111222' 
TCOON,ioos:station:TCOON:006:1,2014-08-01T09:54:00Z,27.8217,-97.2040,0.0,7.1,173.0,9.1,'11111222,11111222,11111222' 
TCOON,ioos:station:TCOON:006:1,2014-08-01T10:00:00Z,27.8217,-97.2040,0.0,7.8,177.0,9.6,'11111222,11111222,11111222' 
TCOON,ioos:station:TCOON:006:1,2014-08-01T10:06:00Z,27.8217,-97.2040,0.0,7.8,177.0,9.4,'11111222,11111222,11111222' 
TCOON,ioos:station:TCOON:006:1,2014-08-01T10:12:00Z,27.8217,-97.2040,0.0,7.8,177.0,9.4,'1111122,1111122,1111122' 
TCOON,ioos:station:TCOON:006:1,2014-08-01T10:18:00Z,27.8217,-97.2040,0.0,6.6,176.0,9.2,'11111222,11111222,11111222' 
TCOON,ioos:station:TCOON:006:1,2014-08-01T10:24:00Z,27.8217,-97.2040,0.0,7.5,176.0,8.6,'11111222,11111222,11111222' 
TCOON,ioos:station:TCOON:006:1,2014-08-01T10:30:00Z,27.8217,-97.2040,0.0,7.2,183.0,8.7,'11111222,11111222,11111222' 
TCOON,ioos:station:TCOON:006:1,2014-08-01T10:36:00Z,27.8217,-97.2040,0.0,6.2,182.0,7.7,'11111222,11111222,11111222' 
TCOON,ioos:station:TCOON:006:1,2014-08-01T10:42:00Z,27.8217,-97.2040,0.0,7.5,175.0,8.3,'11111222,11111222,11111222' 
TCOON,ioos:station:TCOON:006:1,2014-08-01T10:48:00Z,27.8217,-97.2040,0.0,5.8,179.0,8.4,'11111222,11111222,11111222' 
TCOON,ioos:station:TCOON:006:1,2014-08-01T10:54:00Z,27.8217,-97.2040,0.0,5.7,170.0,6.7,'11111222,11111222,11111222' 
TCOON,ioos:station:TCOON:006:1,2014-08-01T11:00:00Z,27.8217,-97.2040,0.0,5.9,177.0,7.3,'11111222,11111222,11111222' 
TCOON,ioos:station:TCOON:006:1,2014-08-01T11:06:00Z,27.8217,-97.2040,0.0,5.3,175.0,7.0,'11111222,11111222,11111222' 
TCOON,ioos:station:TCOON:006:1,2014-08-01T11:12:00Z,27.8217,-97.2040,0.0,5.3,175.0,7.0,'1111122,1111122,1111122' 
TCOON,ioos:station:TCOON:006:1,2014-08-01T11:18:00Z,27.8217,-97.2040,0.0,3.8,164.0,5.8,'11111222,11111222,11111222' 
TCOON,ioos:station:TCOON:006:1,2014-08-01T11:24:00Z,27.8217,-97.2040,0.0,4.6,162.0,5.6,'11111222,11111222,11111222' 
TCOON,ioos:station:TCOON:006:1,2014-08-01T11:30:00Z,27.8217,-97.2040,0.0,3.7,170.0,5.0,'11111222,11111222,11111222' 
TCOON,ioos:station:TCOON:006:1,2014-08-01T11:36:00Z,27.8217,-97.2040,0.0,4.0,173.0,4.6,'11111222,11111222,11111222' 
TCOON,ioos:station:TCOON:006:1,2014-08-01T11:42:00Z,27.8217,-97.2040,0.0,2.8,174.0,3.6,'11111222,11111222,11111222' 
TCOON,ioos:station:TCOON:006:1,2014-08-01T11:48:00Z,27.8217,-97.2040,0.0,2.8,167.0,3.9,'11111222,11111222,11111222' 
TCOON,ioos:station:TCOON:006:1,2014-08-01T11:54:00Z,27.8217,-97.2040,0.0,2.3,164.0,3.1,'11111222,11111222,11111222' 
TCOON,ioos:station:TCOON:006:1,2014-08-01T12:00:00Z,27.8217,-97.2040,0.0,2.1,155.0,3.3,'11111222,11111222,11111222' 
TCOON,ioos:station:TCOON:006:1,2014-08-01T12:06:00Z,27.8217,-97.2040,0.0,3.1,163.0,3.8,'11111222,11111222,11111222' 
TCOON,ioos:station:TCOON:006:1,2014-08-01T12:12:00Z,27.8217,-97.2040,0.0,3.1,163.0,3.8,'1111122,1111122,1111122' 
TCOON,ioos:station:TCOON:006:1,2014-08-01T12:18:00Z,27.8217,-97.2040,0.0,2.8,161.0,3.3,'11111222,11111222,11111222' 
TCOON,ioos:station:TCOON:006:1,2014-08-01T12:24:00Z,27.8217,-97.2040,0.0,2.0,163.0,3.1,'11111222,11111222,11111222' 
TCOON,ioos:station:TCOON:006:1,2014-08-01T12:30:00Z,27.8217,-97.2040,0.0,1.6,170.0,2.1,'11111222,11111222,11111222' 
TCOON,ioos:station:TCOON:006:1,2014-08-01T12:36:00Z,27.8217,-97.2040,0.0,1.8,173.0,2.5,'11111222,11111222,11111222' 
TCOON,ioos:station:TCOON:006:1,2014-08-01T12:42:00Z,27.8217,-97.2040,0.0,1.8,173.0,2.5,'11111222,11111222,11111222' 
TCOON,ioos:station:TCOON:006:1,2014-08-01T12:48:00Z,27.8217,-97.2040,0.0,1.5,156.0,1.7,'11111222,11111222,11111222' 
TCOON,ioos:station:TCOON:006:1,2014-08-01T12:54:00Z,27.8217,-97.2040,0.0,1.8,169.0,2.0,'11111222,11111222,11111222' 
TCOON,ioos:station:TCOON:006:1,2014-08-01T13:00:00Z,27.8217,-97.2040,0.0,1.7,176.0,2.1,'11111222,11111222,11111222' 
TCOON,ioos:station:TCOON:006:1,2014-08-01T13:06:00Z,27.8217,-97.2040,0.0,1.1,162.0,1.7,'11111222,11111222,11111222' 
TCOON,ioos:station:TCOON:006:1,2014-08-01T13:12:00Z,27.8217,-97.2040,0.0,1.1,162.0,1.7,'1111122,1111122,1111122' 
TCOON,ioos:station:TCOON:006:1,2014-08-01T13:18:00Z,27.8217,-97.2040,0.0,1.7,159.0,2.3,'11111222,11111222,11111222' 
TCOON,ioos:station:TCOON:006:1,2014-08-01T13:24:00Z,27.8217,-97.2040,0.0,1.7,152.0,2.3,'11111222,11111222,11111222' 
TCOON,ioos:station:TCOON:006:1,2014-08-01T13:30:00Z,27.8217,-97.2040,0.0,1.3,152.0,1.5,'11111222,11111222,11111222' 
TCOON,ioos:station:TCOON:006:1,2014-08-01T13:36:00Z,27.8217,-97.2040,0.0,1.2,154.0,1.5,'11111222,11111222,11111222' 
TCOON,ioos:station:TCOON:006:1,2014-08-01T13:42:00Z,27.8217,-97.2040,0.0,1.6,153.0,2.3,'11111222,11111222,11111222' 
TCOON,ioos:station:TCOON:006:1,2014-08-01T13:48:00Z,27.8217,-97.2040,0.0,1.8,161.0,2.4,'11111222,11111222,11111222' 
TCOON,ioos:station:TCOON:006:1,2014-08-01T13:54:00Z,27.8217,-97.2040,0.0,1.1,158.0,1.6,'11111222,11111222,11111222' 
TCOON,ioos:station:TCOON:006:1,2014-08-01T14:00:00Z,27.8217,-97.2040,0.0,1.9,161.0,2.6,'11111222,11111222,11111222' 
TCOON,ioos:station:TCOON:006:1,2014-08-01T14:06:00Z,27.8217,-97.2040,0.0,1.2,155.0,2.0,'11111222,11111222,11111222' 
TCOON,ioos:station:TCOON:006:1,2014-08-01T14:12:00Z,27.8217,-97.2040,0.0,1.2,155.0,2.0,'1111122,1111122,1111122' 
TCOON,ioos:station:TCOON:006:1,2014-08-01T14:18:00Z,27.8217,-97.2040,0.0,1.6,147.0,2.3,'11111222,11111222,11111222' 
TCOON,ioos:station:TCOON:006:1,2014-08-01T14:24:00Z,27.8217,-97.2040,0.0,1.2,124.0,2.0,'11111222,11111222,11111222' 
TCOON,ioos:station:TCOON:006:1,2014-08-01T14:30:00Z,27.8217,-97.2040,0.0,1.5,133.0,2.2,'11111222,11111222,11111222' 
TCOON,ioos:station:TCOON:006:1,2014-08-01T14:36:00Z,27.8217,-97.2040,0.0,1.8,169.0,2.5,'11111222,11111222,11111222' 
TCOON,ioos:station:TCOON:006:1,2014-08-01T14:42:00Z,27.8217,-97.2040,0.0,1.8,147.0,2.8,'11111222,11111222,11111222' 
TCOON,ioos:station:TCOON:006:1,2014-08-01T14:48:00Z,27.8217,-97.2040,0.0,2.3,155.0,3.2,'11111222,11111222,11111222' 
TCOON,ioos:station:TCOON:006:1,2014-08-01T14:54:00Z,27.8217,-97.2040,0.0,2.3,149.0,3.1,'11111222,11111222,11111222' 
TCOON,ioos:station:TCOON:006:1,2014-08-01T15:00:00Z,27.8217,-97.2040,0.0,2.3,156.0,3.3,'11111222,11111222,11111222' 
TCOON,ioos:station:TCOON:006:1,2014-08-01T15:06:00Z,27.8217,-97.2040,0.0,2.5,145.0,3.6,'11111222,11111222,11111222' 
TCOON,ioos:station:TCOON:006:1,2014-08-01T15:12:00Z,27.8217,-97.2040,0.0,2.5,145.0,3.6,'1111122,1111122,1111122' 
TCOON,ioos:station:TCOON:006:1,2014-08-01T15:18:00Z,27.8217,-97.2040,0.0,2.7,146.0,3.8,'11111222,11111222,11111222' 
TCOON,ioos:station:TCOON:006:1,2014-08-01T15:24:00Z,27.8217,-97.2040,0.0,2.2,159.0,3.1,'11111222,11111222,11111222' 
TCOON,ioos:station:TCOON:006:1,2014-08-01T15:30:00Z,27.8217,-97.2040,0.0,1.8,129.0,2.3,'11111222,11111222,11111222' 
TCOON,ioos:station:TCOON:006:1,2014-08-01T15:36:00Z,27.8217,-97.2040,0.0,2.1,118.0,3.2,'11111222,11111222,11111222' 
TCOON,ioos:station:TCOON:006:1,2014-08-01T15:42:00Z,27.8217,-97.2040,0.0,2.1,123.0,2.6,'11111222,11111222,11111222' 
TCOON,ioos:station:TCOON:006:1,2014-08-01T15:48:00Z,27.8217,-97.2040,0.0,2.0,124.0,2.7,'11111222,11111222,11111222' 
TCOON,ioos:station:TCOON:006:1,2014-08-01T15:54:00Z,27.8217,-97.2040,0.0,2.3,142.0,3.2,'11111222,11111222,11111222' 
TCOON,ioos:station:TCOON:006:1,2014-08-01T16:00:00Z,27.8217,-97.2040,0.0,2.4,137.0,3.2,'11111222,11111222,11111222' 
TCOON,ioos:station:TCOON:006:1,2014-08-01T16:06:00Z,27.8217,-97.2040,0.0,2.2,121.0,3.2,'11111222,11111222,11111222' 
TCOON,ioos:station:TCOON:006:1,2014-08-01T16:12:00Z,27.8217,-97.2040,0.0,2.2,121.0,3.2,'1111122,1111122,1111122' 
TCOON,ioos:station:TCOON:006:1,2014-08-01T16:18:00Z,27.8217,-97.2040,0.0,3.1,134.0,3.7,'11111222,11111222,11111222' 
TCOON,ioos:station:TCOON:006:1,2014-08-01T16:24:00Z,27.8217,-97.2040,0.0,3.4,155.0,4.0,'11111222,11111222,11111222' 
TCOON,ioos:station:TCOON:006:1,2014-08-01T16:30:00Z,27.8217,-97.2040,0.0,3.3,154.0,4.1,'11111222,11111222,11111222' 
TCOON,ioos:station:TCOON:006:1,2014-08-01T16:36:00Z,27.8217,-97.2040,0.0,3.3,154.0,4.8,'11111222,11111222,11111222' 
TCOON,ioos:station:TCOON:006:1,2014-08-01T16:42:00Z,27.8217,-97.2040,0.0,3.4,153.0,4.0,'11111222,11111222,11111222' 
TCOON,ioos:station:TCOON:006:1,2014-08-01T16:48:00Z,27.8217,-97.2040,0.0,3.5,133.0,4.6,'11111222,11111222,11111222' 
TCOON,ioos:station:TCOON:006:1,2014-08-01T16:54:00Z,27.8217,-97.2040,0.0,3.1,129.0,4.6,'11111222,11111222,11111222' 
TCOON,ioos:station:TCOON:006:1,2014-08-01T17:00:00Z,27.8217,-97.2040,0.0,3.8,127.0,5.1,'11111222,11111222,11111222' 
TCOON,ioos:station:TCOON:006:1,2014-08-01T17:06:00Z,27.8217,-97.2040,0.0,4.0,131.0,5.1,'11111222,11111222,11111222' 
TCOON,ioos:station:TCOON:006:1,2014-08-01T17:12:00Z,27.8217,-97.2040,0.0,4.0,131.0,5.1,'1111122,1111122,1111122' 
TCOON,ioos:station:TCOON:006:1,2014-08-01T17:18:00Z,27.8217,-97.2040,0.0,4.7,132.0,5.7,'11111222,11111222,11111222' 
TCOON,ioos:station:TCOON:006:1,2014-08-01T17:24:00Z,27.8217,-97.2040,0.0,3.8,140.0,5.4,'11111222,11111222,11111222' 
TCOON,ioos:station:TCOON:006:1,2014-08-01T17:30:00Z,27.8217,-97.2040,0.0,3.8,140.0,5.1,'11111222,11111222,11111222' 
TCOON,ioos:station:TCOON:006:1,2014-08-01T17:36:00Z,27.8217,-97.2040,0.0,3.9,137.0,5.3,'11111222,11111222,11111222' 
TCOON,ioos:station:TCOON:006:1,2014-08-01T17:42:00Z,27.8217,-97.2040,0.0,3.6,144.0,5.2,'11111222,11111222,11111222' 
TCOON,ioos:station:TCOON:006:1,2014-08-01T17:48:00Z,27.8217,-97.2040,0.0,4.8,158.0,5.6,'11111222,11111222,11111222' 
TCOON,ioos:station:TCOON:006:1,2014-08-01T17:54:00Z,27.8217,-97.2040,0.0,4.0,152.0,5.7,'11111222,11111222,11111222' 
TCOON,ioos:station:TCOON:006:1,2014-08-01T18:00:00Z,27.8217,-97.2040,0.0,3.8,156.0,5.5,'11111222,11111222,11111222' 
TCOON,ioos:station:TCOON:006:1,2014-08-01T18:06:00Z,27.8217,-97.2040,0.0,3.7,134.0,4.9,'11111222,11111222,11111222' 
TCOON,ioos:station:TCOON:006:1,2014-08-01T18:12:00Z,27.8217,-97.2040,0.0,3.7,134.0,4.9,'1111122,1111122,1111122' 
TCOON,ioos:station:TCOON:006:1,2014-08-01T18:18:00Z,27.8217,-97.2040,0.0,4.0,156.0,5.0,'11111222,11111222,11111222' 
TCOON,ioos:station:TCOON:006:1,2014-08-01T18:24:00Z,27.8217,-97.2040,0.0,3.9,149.0,5.7,'11111222,11111222,11111222' 
TCOON,ioos:station:TCOON:006:1,2014-08-01T18:30:00Z,27.8217,-97.2040,0.0,4.4,158.0,5.4,'11111222,11111222,11111222' 
TCOON,ioos:station:TCOON:006:1,2014-08-01T18:36:00Z,27.8217,-97.2040,0.0,4.0,147.0,5.9,'11111222,11111222,11111222' 
TCOON,ioos:station:TCOON:006:1,2014-08-01T18:42:00Z,27.8217,-97.2040,0.0,5.2,151.0,6.7,'11111222,11111222,11111222' 
TCOON,ioos:station:TCOON:006:1,2014-08-01T18:48:00Z,27.8217,-97.2040,0.0,4.9,153.0,5.7,'11111222,11111222,11111222' 
TCOON,ioos:station:TCOON:006:1,2014-08-01T18:54:00Z,27.8217,-97.2040,0.0,4.8,150.0,6.3,'11111222,11111222,11111222' 
TCOON,ioos:station:TCOON:006:1,2014-08-01T19:00:00Z,27.8217,-97.2040,0.0,4.8,152.0,6.3,'11111222,11111222,11111222' 
TCOON,ioos:station:TCOON:006:1,2014-08-01T19:06:00Z,27.8217,-97.2040,0.0,4.2,150.0,6.0,'11111222,11111222,11111222' 
TCOON,ioos:station:TCOON:006:1,2014-08-01T19:12:00Z,27.8217,-97.2040,0.0,4.2,150.0,6.0,'1111122,1111122,1111122' 
TCOON,ioos:station:TCOON:006:1,2014-08-01T19:18:00Z,27.8217,-97.2040,0.0,5.2,154.0,7.0,'11111222,11111222,11111222' 
TCOON,ioos:station:TCOON:006:1,2014-08-01T19:24:00Z,27.8217,-97.2040,0.0,4.2,148.0,5.7,'11111222,11111222,11111222' 
TCOON,ioos:station:TCOON:006:1,2014-08-01T19:30:00Z,27.8217,-97.2040,0.0,5.2,157.0,6.6,'11111222,11111222,11111222' 
TCOON,ioos:station:TCOON:006:1,2014-08-01T19:36:00Z,27.8217,-97.2040,0.0,5.1,161.0,6.3,'11111222,11111222,11111222' 
TCOON,ioos:station:TCOON:006:1,2014-08-01T19:42:00Z,27.8217,-97.2040,0.0,5.0,155.0,6.1,'11111222,11111222,11111222' 
TCOON,ioos:station:TCOON:006:1,2014-08-01T19:48:00Z,27.8217,-97.2040,0.0,4.7,153.0,5.7,'11111222,11111222,11111222' 
TCOON,ioos:station:TCOON:006:1,2014-08-01T19:54:00Z,27.8217,-97.2040,0.0,5.4,153.0,6.8,'11111222,11111222,11111222' 
TCOON,ioos:station:TCOON:006:1,2014-08-01T20:00:00Z,27.8217,-97.2040,0.0,4.9,147.0,6.8,'11111222,11111222,11111222' 
TCOON,ioos:station:TCOON:006:1,2014-08-01T20:06:00Z,27.8217,-97.2040,0.0,5.3,143.0,6.5,'11111222,11111222,11111222' 
TCOON,ioos:station:TCOON:006:1,2014-08-01T20:12:00Z,27.8217,-97.2040,0.0,5.3,143.0,6.5,'1111122,1111122,1111122' 
TCOON,ioos:station:TCOON:006:1,2014-08-01T20:18:00Z,27.8217,-97.2040,0.0,5.0,149.0,7.1,'11111222,11111222,11111222' 